This demonstration page uses our WeatherBlox Daily Observations layout. Learn more.

Hourly Observations for September 1, 2016

Temp ( °F °C ) Dew Point ( °F °C ) Humidity (%) Winds ( mph kmh ) Pressure ( in mb ) Visibility ( mi km ) Precip ( " mm )
12:15 am 00:15 Clear 60 15.5 56 13.2 86 86 Calm 30.18 1022 10 16.09344 0 0
12:35 am 00:35 Clear 59 15 56 13.3 90 90 E 3 6 30.18 1022 10 16.09344 0 0
12:55 am 00:55 Clear 60 15.5 56 13.5 88 88 E 3 6 30.18 1022 10 16.09344 0 0
1:15 am 01:15 Clear 59 14.8 55 13 89 89 Calm 30.18 1022 10 16.09344 0 0
1:35 am 01:35 Clear 58 14.5 55 13 91 91 Calm 30.21 1023 10 16.09344 0 0
1:55 am 01:55 Clear 56 13.5 54 12.2 92 92 E 3 6 30.21 1023 10 16.09344 0 0
2:15 am 02:15 Mostly Cloudy with Mist and Fog 57 13.7 55 12.5 93 93 E 5 7 30.21 1023 1 1.609344 0 0
2:35 am 02:35 Mostly Cloudy with Fog 57 13.7 55 12.5 93 93 E 3 6 30.21 1023 0.5 0.804672 0 0
2:55 am 02:55 Clear 56 13.6 54 12.4 93 93 Calm 30.21 1023 10 16.09344 0 0
3:15 am 03:15 Clear 55 12.8 53 11.9 94 94 Calm 30.21 1023 10 16.09344 0 0
3:35 am 03:35 Clear 55 12.5 53 11.6 94 94 Calm 30.21 1023 10 16.09344 0 0
3:55 am 03:55 Clear 54 12 52 11 94 94 Calm 30.21 1023 7 11.265408 0 0
4:15 am 04:15 Clear 53 11.7 52 11 96 96 Calm 30.21 1023 7 11.265408 0 0
4:35 am 04:35 Clear with Mist and Fog 54 12 52 11.3 96 96 Calm 30.21 1023 5 8.04672 0 0
4:55 am 04:55 Clear 53 11.7 52 11.1 96 96 Calm 30.21 1023 7 11.265408 0 0
5:15 am 05:15 Clear 52 11.3 51 10.8 97 97 Calm 30.21 1023 7 11.265408 0 0
5:35 am 05:35 Clear with Mist and Fog 53 11.5 52 10.9 96 96 Calm 30.21 1023 2 3.218688 0 0
5:55 am 05:55 Mostly Cloudy with Fog 53 11.5 52 10.9 96 96 Calm 30.21 1023 0.5 0.804672 0 0
6:15 am 06:15 Clear with Mist and Fog 51 10.8 50 10.2 96 96 Calm 30.24 1024 3 4.828032 0 0
6:35 am 06:35 Mostly Cloudy with Mist and Fog 51 10.5 50 10 97 97 Calm 30.24 1024 1.5 2.414016 0 0
6:55 am 06:55 Clear with Mist and Fog 51 10.6 50 10.1 97 97 Calm 30.24 1024 2.5 4.02336 0 0
7:15 am 07:15 Sunny with Mist and Fog 51 10.5 50 10 97 97 Calm 30.24 1024 4 6.437376 0 0
7:35 am 07:35 Sunny with Mist and Fog 51 10.5 50 10 97 97 Calm 30.24 1024 3 4.828032 0 0
7:55 am 07:55 Sunny with Mist and Fog 53 11.5 52 11 97 97 Calm 30.21 1023 5 8.04672 0 0
8:15 am 08:15 Sunny with Mist and Fog 56 13.2 55 12.7 97 97 Calm 30.24 1024 4 6.437376 0 0
8:35 am 08:35 Sunny 58 14.6 57 14.1 97 97 Calm 30.24 1024 7 11.265408 0 0
8:55 am 08:55 Sunny 61 16 59 15.2 95 95 Calm 30.18 1022 10 16.09344 0 0
9:15 am 09:15 Sunny 63 17.3 58 14.7 85 85 SE 5 7 30.18 1022 10 16.09344 0 0
9:35 am 09:35 Sunny 65 18.3 59 14.9 81 81 SSE 5 7 30.15 1021 10 16.09344 0 0
9:55 am 09:55 Sunny 67 19.6 59 15 75 75 SSE 5 7 30.15 1021 10 16.09344 0 0
10:15 am 10:15 Sunny 69 20.7 59 14.9 70 70 SSE 8 13 30.15 1021 10 16.09344 0 0
10:35 am 10:35 Sunny 69 20.8 58 14.2 66 66 SE 10 17 30.18 1022 10 16.09344 0 0
10:55 am 10:55 Sunny 71 21.6 57 13.8 61 61 SSE 6 9 30.18 1022 10 16.09344 0 0
11:15 am 11:15 Sunny 72 22.2 56 13.2 57 57 SSE 8 13 30.12 1020 10 16.09344 0 0
11:35 am 11:35 Sunny 72 22.3 56 13.2 56 56 SE 10 17 30.12 1020 10 16.09344 0 0
11:55 am 11:55 Sunny 73 22.5 55 12.9 55 55 ESE 9 15 30.12 1020 10 16.09344 0 0
12:15 pm 12:15 Sunny 73 22.8 55 13 54 54 E 9 15 30.12 1020 10 16.09344 0 0
12:35 pm 12:35 Sunny 74 23.6 55 12.5 50 50 E 10 17 30.12 1020 10 16.09344 0 0
12:55 pm 12:55 Sunny 75 23.9 52 10.9 44 44 ESE 13 20 30.12 1020 10 16.09344 0 0
1:15 pm 13:15 Sunny 76 24.2 54 12.2 47 47 E 8 13 30.09 1019 10 16.09344 0 0
1:35 pm 13:35 Sunny 76 24.3 53 11.8 46 46 E 10 17 30.09 1019 10 16.09344 0 0
1:55 pm 13:55 Sunny 77 24.8 53 11.8 44 44 ESE 9 15 30.09 1019 10 16.09344 0 0
2:15 pm 14:15 Sunny 77 25 53 11.8 44 44 SE 7 11 30.06 1018 10 16.09344 0 0
2:35 pm 14:35 Sunny 77 25.2 53 11.5 42 42 E 12 19 30.06 1018 10 16.09344 0 0
2:55 pm 14:55 Sunny 78 25.4 52 11.1 41 41 ESE 9 15 30.06 1018 10 16.09344 0 0
3:15 pm 15:15 Sunny 78 25.7 51 10.7 39 39 E 10 17 30.06 1018 10 16.09344 0 0
3:35 pm 15:35 Sunny 79 26.2 50 10.2 37 37 ESE 9 15 30.03 1017 10 16.09344 0 0
3:55 pm 15:55 Sunny 79 25.9 50 9.9 37 37 ESE 13 20 30.03 1017 10 16.09344 0 0
4:15 pm 16:15 Sunny 79 26.1 50 9.9 36 36 ESE 12 19 30.03 1017 10 16.09344 0 0
4:35 pm 16:35 Sunny 79 26 50 10 37 37 ESE 8 13 30.03 1017 10 16.09344 0 0
4:55 pm 16:55 Sunny 79 25.9 51 10.7 39 39 ESE 13 20 30.03 1017 10 16.09344 0 0
5:15 pm 17:15 Sunny 78 25.8 53 11.6 41 41 ESE 13 20 30 1016 10 16.09344 0 0
5:35 pm 17:35 Sunny 78 25.7 53 11.8 42 42 ESE 13 20 30 1016 10 16.09344 0 0
5:55 pm 17:55 Sunny 78 25.3 52 11.2 41 41 ESE 14 22 30 1016 10 16.09344 0 0
6:15 pm 18:15 Sunny 77 25.1 53 11.6 43 43 ESE 10 17 30 1016 10 16.09344 0 0
6:35 pm 18:35 Sunny 76 24.5 53 11.8 45 45 ESE 9 15 30 1016 10 16.09344 0 0
6:55 pm 18:55 Sunny 76 24.5 62 16.4 61 61 E 6 9 30.06 1018 10 16.09344 0 0
7:15 pm 19:15 Sunny 74 23.1 55 13 53 53 ESE 9 15 30.03 1017 10 16.09344 0 0
7:35 pm 19:35 Sunny 72 22.1 56 13.4 58 58 ESE 8 13 30.03 1017 10 16.09344 0 0
7:55 pm 19:55 Sunny 70 21 56 13.5 62 62 SE 7 11 30.03 1017 10 16.09344 0 0
8:15 pm 20:15 Clear 67 19.6 56 13.2 67 67 SE 7 11 30.09 1019 10 16.09344 0 0
8:35 pm 20:35 Clear 64 18 56 13.3 74 74 SE 7 11 30.09 1019 10 16.09344 0 0
8:55 pm 20:55 Clear 63 17.4 57 13.7 79 79 ESE 7 11 30.12 1020 10 16.09344 0 0
9:15 pm 21:15 Clear 62 16.5 57 13.7 84 84 ESE 7 11 30.12 1020 10 16.09344 0 0
9:35 pm 21:35 Clear 61 16.1 56 13.6 85 85 ESE 6 9 30.12 1020 10 16.09344 0 0
9:55 pm 21:55 Clear 61 15.9 56 13.5 86 86 SE 6 9 30.12 1020 10 16.09344 0 0
10:15 pm 22:15 Clear 60 15.8 56 13.5 86 86 SE 5 7 30.12 1020 10 16.09344 0 0
10:35 pm 22:35 Clear 59 15.2 56 13.1 87 87 SE 5 7 30.12 1020 10 16.09344 0 0
10:55 pm 22:55 Clear 59 14.9 55 12.8 87 87 SE 6 9 30.12 1020 10 16.09344 0 0
11:15 pm 23:15 Clear 58 14.4 55 12.8 90 90 SE 6 9 30.12 1020 10 16.09344 0 0
11:35 pm 23:35 Clear 58 14.5 55 12.7 89 89 SE 6 9 30.15 1021 10 16.09344 0 0
11:55 pm 23:55 Clear 57 14.1 55 12.5 90 90 SE 7 11 30.12 1020 10 16.09344 0 0

Powered by AerisWeather